カタログに戻る

OPS 4682 DEB

運用中PO
NORAD 51503·DEBRIS·🇺🇸 United States

打ち上げ Apr 3, 1965 から Vandenberg Space Force Base

Loading…

次のパス (今後24時間)

TLE

経年Source: Space-Track

元期: Sep 5, 2026, 01:37 UTC

1 51503U 65027GP  26248.06737080 -.00000119  00000-0 -45077-3 0  9996
2 51503  90.2601  10.7037 0040978  24.7093 335.5977 12.94803167533950

AllMySatでOPS 4682 DEBをリアルタイム追跡

Download on the App Store